"Sample Date","Sample Time","Sensor Name","Sample Value","Units","Flow Rate","Sample Interval","Sample Volume","Laser Status","Number Channels","Micron Size 0","Counts/Channel 0","Micron Size 1","Counts/Channel 1","Micron Size 2","Counts/Channel 2","Micron Size 3","Counts/Channel 3","Micron Size 4","Counts/Channel 4","Micron Size 5","Counts/Channel 5","Micron Size 6","Counts/Channel 6","Micron Size 7","Counts/Channel 7","Micron Size 8","Counts/Channel 8","Micron Size 9","Counts/Channel 9","Micron Size 10","Counts/Channel 10","Micron Size 11","Counts/Channel 11","Micron Size 12","Counts/Channel 12","Micron Size 13","Counts/Channel 13","Micron Size 14","Counts/Channel 14","Micron Size 15","Counts/Channel 15","Micron Size 16","Counts/Channel 16","Micron Size 17","Counts/Channel 17","Micron Size 18","Counts/Channel 18","Micron Size 19","Counts/Channel 19","Micron Size 20","Counts/Channel 20","Micron Size 21","Counts/Channel 21","Micron Size 22","Counts/Channel 22","Micron Size 23","Counts/Channel 23","Micron Size 24","Counts/Channel 24","Micron Size 25","Counts/Channel 25","Micron Size 26","Counts/Channel 26","Micron Size 27","Counts/Channel 27","Micron Size 28","Counts/Channel 28","Micron Size 29","Counts/Channel 29","Micron Size 30","Counts/Channel 30","Micron Size 31","Counts/Channel 31"
"07/02/06","04:00:03","AMMA06",59851.000,"cc",28286.309,6.00,2828.631,1,6,0.100,28923.000,0.200,24138.000,0.300,4610.000,0.500,1317.000,1.000,862.000,5.000,1.000
"07/02/06","04:00:09","AMMA06",59966.000,"cc",28293.037,6.00,2829.304,1,6,0.100,28796.000,0.200,24461.000,0.300,4588.000,0.500,1315.000,1.000,805.000,5.000,1.000
"07/02/06","04:00:15","AMMA06",60351.000,"cc",28355.545,6.00,2835.555,1,6,0.100,29113.000,0.200,24383.000,0.300,4764.000,0.500,1256.000,1.000,834.000,5.000,1.000
"07/02/06","04:00:21","AMMA06",60225.000,"cc",28278.516,6.00,2827.852,1,6,0.100,28980.000,0.200,24545.000,0.300,4525.000,0.500,1298.000,1.000,877.000,5.000,0
"07/02/06","04:00:27","AMMA06",60650.000,"cc",28314.197,6.00,2831.420,1,6,0.100,29081.000,0.200,24696.000,0.300,4690.000,0.500,1328.000,1.000,854.000,5.000,1.000
"07/02/06","04:00:33","AMMA06",60336.000,"cc",28302.104,6.00,2830.210,1,6,0.100,28745.000,0.200,24687.000,0.300,4707.000,0.500,1330.000,1.000,867.000,5.000,0
"07/02/06","04:00:39","AMMA06",60536.000,"cc",28266.758,6.00,2826.676,1,6,0.100,28915.000,0.200,24695.000,0.300,4798.000,0.500,1262.000,1.000,865.000,5.000,1.000
"07/02/06","04:00:45","AMMA06",60514.000,"cc",28397.383,6.00,2839.739,1,6,0.100,28994.000,0.200,24600.000,0.300,4652.000,0.500,1363.000,1.000,905.000,5.000,0
"07/02/06","04:00:51","AMMA06",60569.000,"cc",28329.256,6.00,2832.926,1,6,0.100,28977.000,0.200,24667.000,0.300,4713.000,0.500,1318.000,1.000,893.000,5.000,1.000
"07/02/06","04:00:57","AMMA06",59948.000,"cc",28320.984,6.00,2832.099,1,6,0.100,28335.000,0.200,24554.000,0.300,4903.000,0.500,1269.000,1.000,886.000,5.000,1.000
"07/02/06","04:01:03","AMMA06",60461.000,"cc",28298.721,6.00,2829.872,1,6,0.100,28954.000,0.200,24503.000,0.300,4837.000,0.500,1254.000,1.000,912.000,5.000,1.000
"07/02/06","04:01:09","AMMA06",60024.000,"cc",28320.992,6.00,2832.099,1,6,0.100,28683.000,0.200,24526.000,0.300,4640.000,0.500,1333.000,1.000,841.000,5.000,1.000
"07/02/06","04:01:15","AMMA06",60364.000,"cc",28334.598,6.00,2833.460,1,6,0.100,28721.000,0.200,24671.000,0.300,4818.000,0.500,1271.000,1.000,882.000,5.000,1.000
"07/02/06","04:01:21","AMMA06",60698.000,"cc",28311.522,6.00,2831.152,1,6,0.100,29073.000,0.200,24766.000,0.300,4763.000,0.500,1273.000,1.000,823.000,5.000,0
"07/02/06","04:01:27","AMMA06",60275.000,"cc",28298.275,6.00,2829.828,1,6,0.100,28694.000,0.200,24636.000,0.300,4712.000,0.500,1352.000,1.000,881.000,5.000,0
"07/02/06","04:01:33","AMMA06",60531.000,"cc",28299.639,6.00,2829.964,1,6,0.100,28968.000,0.200,24565.000,0.300,4742.000,0.500,1331.000,1.000,925.000,5.000,0
"07/02/06","04:01:39","AMMA06",60519.000,"cc",28317.650,6.00,2831.765,1,6,0.100,28892.000,0.200,24789.000,0.300,4748.000,0.500,1185.000,1.000,903.000,5.000,2.000
"07/02/06","04:01:45","AMMA06",60120.000,"cc",28302.010,6.00,2830.201,1,6,0.100,28555.000,0.200,24624.000,0.300,4763.000,0.500,1320.000,1.000,858.000,5.000,0
"07/02/06","04:01:51","AMMA06",59687.000,"cc",28334.731,6.00,2833.473,1,6,0.100,28022.000,0.200,24799.000,0.300,4768.000,0.500,1241.000,1.000,857.000,5.000,0
"07/02/06","04:01:57","AMMA06",60090.000,"cc",28312.408,6.00,2831.241,1,6,0.100,28436.000,0.200,24746.000,0.300,4790.000,0.500,1237.000,1.000,881.000,5.000,0
"07/02/06","04:02:03","AMMA06",60432.000,"cc",28321.412,6.00,2832.141,1,6,0.100,28837.000,0.200,24682.000,0.300,4750.000,0.500,1266.000,1.000,897.000,5.000,0
"07/02/06","04:02:09","AMMA06",60304.000,"cc",28302.762,6.00,2830.276,1,6,0.100,28594.000,0.200,24756.000,0.300,4758.000,0.500,1286.000,1.000,909.000,5.000,1.000
"07/02/06","04:02:15","AMMA06",60084.000,"cc",28262.283,6.00,2826.229,1,6,0.100,28496.000,0.200,24737.000,0.300,4668.000,0.500,1308.000,1.000,874.000,5.000,1.000
"07/02/06","04:02:21","AMMA06",60320.000,"cc",28313.451,6.00,2831.345,1,6,0.100,28542.000,0.200,24758.000,0.300,4805.000,0.500,1317.000,1.000,898.000,5.000,0
"07/02/06","04:02:27","AMMA06",59927.000,"cc",28355.854,6.00,2835.585,1,6,0.100,28534.000,0.200,24490.000,0.300,4722.000,0.500,1262.000,1.000,917.000,5.000,2.000
"07/02/06","04:02:33","AMMA06",60785.000,"cc",28344.584,6.00,2834.459,1,6,0.100,29001.000,0.200,24845.000,0.300,4821.000,0.500,1229.000,1.000,888.000,5.000,1.000
"07/02/06","04:02:39","AMMA06",60250.000,"cc",28289.361,6.00,2828.936,1,6,0.100,28687.000,0.200,24669.000,0.300,4790.000,0.500,1249.000,1.000,854.000,5.000,1.000
"07/02/06","04:02:45","AMMA06",60588.000,"cc",28344.752,6.00,2834.475,1,6,0.100,28825.000,0.200,24827.000,0.300,4751.000,0.500,1270.000,1.000,915.000,5.000,0
"07/02/06","04:02:51","AMMA06",60718.000,"cc",28297.545,6.00,2829.755,1,6,0.100,28852.000,0.200,24784.000,0.300,4891.000,0.500,1287.000,1.000,904.000,5.000,0
"07/02/06","04:02:57","AMMA06",60110.000,"cc",28345.977,6.00,2834.598,1,6,0.100,28483.000,0.200,24675.000,0.300,4793.000,0.500,1303.000,1.000,855.000,5.000,1.000
"07/02/06","04:03:03","AMMA06",60821.000,"cc",28323.856,6.00,2832.386,1,6,0.100,28805.000,0.200,24810.000,0.300,4926.000,0.500,1406.000,1.000,873.000,5.000,1.000
"07/02/06","04:03:09","AMMA06",59745.000,"cc",28326.227,6.00,2832.623,1,6,0.100,28470.000,0.200,24386.000,0.300,4790.000,0.500,1253.000,1.000,845.000,5.000,1.000
"07/02/06","04:03:15","AMMA06",60474.000,"cc",28315.479,6.00,2831.548,1,6,0.100,28532.000,0.200,24949.000,0.300,4798.000,0.500,1231.000,1.000,963.000,5.000,1.000
"07/02/06","04:03:21","AMMA06",60376.000,"cc",28289.717,6.00,2828.972,1,6,0.100,28604.000,0.200,24592.000,0.300,5018.000,0.500,1299.000,1.000,863.000,5.000,0
"07/02/06","04:03:27","AMMA06",60548.000,"cc",28333.467,6.00,2833.347,1,6,0.100,28482.000,0.200,24868.000,0.300,5020.000,0.500,1278.000,1.000,900.000,5.000,0
"07/02/06","04:03:33","AMMA06",60600.000,"cc",28302.729,6.00,2830.273,1,6,0.100,28765.000,0.200,24908.000,0.300,4837.000,0.500,1213.000,1.000,877.000,5.000,0
"07/02/06","04:03:39","AMMA06",60787.000,"cc",28278.969,6.00,2827.897,1,6,0.100,28594.000,0.200,24966.000,0.300,4984.000,0.500,1327.000,1.000,916.000,5.000,0
"07/02/06","04:03:45","AMMA06",59940.000,"cc",28325.664,6.00,2832.567,1,6,0.100,28025.000,0.200,24823.000,0.300,4861.000,0.500,1303.000,1.000,927.000,5.000,1.000
"07/02/06","04:03:51","AMMA06",60729.000,"cc",28363.670,6.00,2836.367,1,6,0.100,28575.000,0.200,25058.000,0.300,4923.000,0.500,1306.000,1.000,866.000,5.000,1.000
"07/02/06","04:03:57","AMMA06",60713.000,"cc",28277.604,6.00,2827.761,1,6,0.100,28835.000,0.200,24720.000,0.300,4969.000,0.500,1310.000,1.000,877.000,5.000,2.000
"07/02/06","04:04:03","AMMA06",60867.000,"cc",28313.975,6.00,2831.398,1,6,0.100,28565.000,0.200,25171.000,0.300,4948.000,0.500,1290.000,1.000,892.000,5.000,1.000
"07/02/06","04:04:09","AMMA06",60387.000,"cc",28288.201,6.00,2828.820,1,6,0.100,28473.000,0.200,24888.000,0.300,4929.000,0.500,1254.000,1.000,842.000,5.000,1.000
"07/02/06","04:04:15","AMMA06",60374.000,"cc",28328.168,6.00,2832.817,1,6,0.100,28290.000,0.200,25117.000,0.300,4848.000,0.500,1187.000,1.000,931.000,5.000,1.000
"07/02/06","04:04:21","AMMA06",60662.000,"cc",28348.971,6.00,2834.897,1,6,0.100,28597.000,0.200,24955.000,0.300,4906.000,0.500,1291.000,1.000,912.000,5.000,1.000
"07/02/06","04:04:27","AMMA06",60195.000,"cc",28303.357,6.00,2830.336,1,6,0.100,28504.000,0.200,24751.000,0.300,4787.000,0.500,1319.000,1.000,834.000,5.000,0
"07/02/06","04:04:33","AMMA06",60643.000,"cc",28295.844,6.00,2829.585,1,6,0.100,28785.000,0.200,24794.000,0.300,4911.000,0.500,1238.000,1.000,915.000,5.000,0
"07/02/06","04:04:39","AMMA06",60811.000,"cc",28309.137,6.00,2830.914,1,6,0.100,28923.000,0.200,24932.000,0.300,4798.000,0.500,1301.000,1.000,857.000,5.000,0
"07/02/06","04:04:45","AMMA06",60657.000,"cc",28323.359,6.00,2832.336,1,6,0.100,28609.000,0.200,25012.000,0.300,4922.000,0.500,1260.000,1.000,854.000,5.000,0
"07/02/06","04:04:51","AMMA06",60492.000,"cc",28330.779,6.00,2833.078,1,6,0.100,28690.000,0.200,24798.000,0.300,4830.000,0.500,1299.000,1.000,874.000,5.000,1.000
"07/02/06","04:04:57","AMMA06",60652.000,"cc",28308.670,6.00,2830.867,1,6,0.100,28974.000,0.200,24684.000,0.300,4832.000,0.500,1288.000,1.000,873.000,5.000,1.000
"07/02/06","04:05:03","AMMA06",60472.000,"cc",28292.234,6.00,2829.224,1,6,0.100,28611.000,0.200,24888.000,0.300,4830.000,0.500,1309.000,1.000,832.000,5.000,2.000
"07/02/06","04:05:09","AMMA06",60659.000,"cc",28326.729,6.00,2832.673,1,6,0.100,28884.000,0.200,24815.000,0.300,4774.000,0.500,1294.000,1.000,892.000,5.000,0
"07/02/06","04:05:15","AMMA06",61156.000,"cc",28312.354,6.00,2831.236,1,6,0.100,29406.000,0.200,24958.000,0.300,4650.000,0.500,1300.000,1.000,842.000,5.000,0
"07/02/06","04:05:21","AMMA06",60595.000,"cc",28330.463,6.00,2833.046,1,6,0.100,29013.000,0.200,24803.000,0.300,4657.000,0.500,1268.000,1.000,853.000,5.000,1.000
"07/02/06","04:05:27","AMMA06",60535.000,"cc",28343.285,6.00,2834.329,1,6,0.100,29014.000,0.200,24445.000,0.300,4932.000,0.500,1251.000,1.000,893.000,5.000,0
"07/02/06","04:05:33","AMMA06",61414.000,"cc",28324.936,6.00,2832.494,1,6,0.100,29501.000,0.200,24850.000,0.300,4828.000,0.500,1330.000,1.000,905.000,5.000,0
"07/02/06","04:05:39","AMMA06",61203.000,"cc",28320.184,6.00,2832.019,1,6,0.100,29468.000,0.200,24675.000,0.300,4816.000,0.500,1344.000,1.000,900.000,5.000,0
"07/02/06","04:05:45","AMMA06",60594.000,"cc",28299.313,6.00,2829.931,1,6,0.100,29339.000,0.200,24420.000,0.300,4700.000,0.500,1260.000,1.000,875.000,5.000,0
"07/02/06","04:05:51","AMMA06",61061.000,"cc",28319.227,6.00,2831.923,1,6,0.100,29489.000,0.200,24634.000,0.300,4764.000,0.500,1321.000,1.000,852.000,5.000,1.000
"07/02/06","04:05:57","AMMA06",60988.000,"cc",28336.504,6.00,2833.651,1,6,0.100,29310.000,0.200,24958.000,0.300,4629.000,0.500,1251.000,1.000,837.000,5.000,3.000
"07/02/06","04:06:03","AMMA06",61253.000,"cc",28294.393,6.00,2829.440,1,6,0.100,29296.000,0.200,25029.000,0.300,4760.000,0.500,1326.000,1.000,842.000,5.000,0
"07/02/06","04:06:09","AMMA06",60630.000,"cc",28346.967,6.00,2834.697,1,6,0.100,29327.000,0.200,24414.000,0.300,4699.000,0.500,1333.000,1.000,857.000,5.000,0
"07/02/06","04:06:15","AMMA06",60693.000,"cc",28289.852,6.00,2828.985,1,6,0.100,29081.000,0.200,24575.000,0.300,4852.000,0.500,1305.000,1.000,879.000,5.000,1.000
"07/02/06","04:06:21","AMMA06",60912.000,"cc",28304.678,6.00,2830.468,1,6,0.100,29282.000,0.200,24622.000,0.300,4696.000,0.500,1381.000,1.000,930.000,5.000,1.000
"07/02/06","04:06:27","AMMA06",60911.000,"cc",28288.961,6.00,2828.896,1,6,0.100,29480.000,0.200,24503.000,0.300,4696.000,0.500,1399.000,1.000,833.000,5.000,0
"07/02/06","04:06:33","AMMA06",60911.000,"cc",28328.426,6.00,2832.843,1,6,0.100,29330.000,0.200,24690.000,0.300,4714.000,0.500,1287.000,1.000,890.000,5.000,0
"07/02/06","04:06:39","AMMA06",60593.000,"cc",28318.168,6.00,2831.817,1,6,0.100,29379.000,0.200,24414.000,0.300,4666.000,0.500,1251.000,1.000,883.000,5.000,0
"07/02/06","04:06:45","AMMA06",61184.000,"cc",28296.250,6.00,2829.625,1,6,0.100,29717.000,0.200,24600.000,0.300,4686.000,0.500,1321.000,1.000,860.000,5.000,0
"07/02/06","04:06:51","AMMA06",61522.000,"cc",28327.947,6.00,2832.795,1,6,0.100,29792.000,0.200,24802.000,0.300,4734.000,0.500,1329.000,1.000,864.000,5.000,1.000
"07/02/06","04:06:57","AMMA06",60932.000,"cc",28359.820,6.00,2835.982,1,6,0.100,29685.000,0.200,24459.000,0.300,4606.000,0.500,1297.000,1.000,884.000,5.000,1.000
"07/02/06","04:07:03","AMMA06",60976.000,"cc",28304.936,6.00,2830.494,1,6,0.100,29455.000,0.200,24649.000,0.300,4666.000,0.500,1284.000,1.000,920.000,5.000,2.000
"07/02/06","04:07:09","AMMA06",60471.000,"cc",28352.762,6.00,2835.276,1,6,0.100,29097.000,0.200,24420.000,0.300,4714.000,0.500,1346.000,1.000,894.000,5.000,0
"07/02/06","04:07:15","AMMA06",60813.000,"cc",28332.760,6.00,2833.276,1,6,0.100,29303.000,0.200,24731.000,0.300,4644.000,0.500,1277.000,1.000,858.000,5.000,0
"07/02/06","04:07:21","AMMA06",61008.000,"cc",28265.473,6.00,2826.547,1,6,0.100,29639.000,0.200,24529.000,0.300,4657.000,0.500,1321.000,1.000,862.000,5.000,0
"07/02/06","04:07:27","AMMA06",61207.000,"cc",28319.033,6.00,2831.904,1,6,0.100,29522.000,0.200,24732.000,0.300,4735.000,0.500,1297.000,1.000,921.000,5.000,0
"07/02/06","04:07:33","AMMA06",60909.000,"cc",28348.891,6.00,2834.889,1,6,0.100,29362.000,0.200,24660.000,0.300,4668.000,0.500,1351.000,1.000,867.000,5.000,1.000
"07/02/06","04:07:39","AMMA06",61070.000,"cc",28281.338,6.00,2828.134,1,6,0.100,29525.000,0.200,24713.000,0.300,4700.000,0.500,1312.000,1.000,820.000,5.000,0
"07/02/06","04:07:45","AMMA06",61247.000,"cc",28337.406,6.00,2833.741,1,6,0.100,29289.000,0.200,25062.000,0.300,4701.000,0.500,1282.000,1.000,912.000,5.000,1.000
"07/02/06","04:07:51","AMMA06",60836.000,"cc",28288.219,6.00,2828.822,1,6,0.100,29155.000,0.200,24704.000,0.300,4827.000,0.500,1268.000,1.000,882.000,5.000,0
"07/02/06","04:07:57","AMMA06",60615.000,"cc",28334.607,6.00,2833.461,1,6,0.100,28958.000,0.200,24624.000,0.300,4805.000,0.500,1305.000,1.000,922.000,5.000,1.000
"07/02/06","04:08:03","AMMA06",61555.000,"cc",28333.709,6.00,2833.371,1,6,0.100,29391.000,0.200,24968.000,0.300,4949.000,0.500,1335.000,1.000,910.000,5.000,2.000
"07/02/06","04:08:09","AMMA06",61155.000,"cc",28307.104,6.00,2830.710,1,6,0.100,29150.000,0.200,25015.000,0.300,4816.000,0.500,1286.000,1.000,886.000,5.000,2.000
"07/02/06","04:08:15","AMMA06",61325.000,"cc",28364.137,6.00,2836.414,1,6,0.100,29124.000,0.200,25147.000,0.300,4850.000,0.500,1301.000,1.000,902.000,5.000,1.000
"07/02/06","04:08:21","AMMA06",61112.000,"cc",28337.166,6.00,2833.717,1,6,0.100,28963.000,0.200,25023.000,0.300,4896.000,0.500,1314.000,1.000,914.000,5.000,2.000
"07/02/06","04:08:27","AMMA06",60867.000,"cc",28235.527,6.00,2823.553,1,6,0.100,28851.000,0.200,24846.000,0.300,4952.000,0.500,1279.000,1.000,937.000,5.000,2.000
"07/02/06","04:08:33","AMMA06",61490.000,"cc",28331.397,6.00,2833.140,1,6,0.100,28990.000,0.200,25392.000,0.300,4961.000,0.500,1273.000,1.000,873.000,5.000,1.000
"07/02/06","04:08:39","AMMA06",61535.000,"cc",28304.092,6.00,2830.409,1,6,0.100,29195.000,0.200,25206.000,0.300,4936.000,0.500,1326.000,1.000,871.000,5.000,1.000
"07/02/06","04:08:45","AMMA06",61246.000,"cc",28352.334,6.00,2835.234,1,6,0.100,28916.000,0.200,25222.000,0.300,4884.000,0.500,1304.000,1.000,920.000,5.000,0
"07/02/06","04:08:51","AMMA06",61237.000,"cc",28268.543,6.00,2826.855,1,6,0.100,28795.000,0.200,25273.000,0.300,5070.000,0.500,1241.000,1.000,858.000,5.000,0
"07/02/06","04:08:57","AMMA06",61422.000,"cc",28287.281,6.00,2828.728,1,6,0.100,28683.000,0.200,25359.000,0.300,5158.000,0.500,1323.000,1.000,899.000,5.000,0
"07/02/06","04:09:03","AMMA06",62121.000,"cc",28328.641,6.00,2832.864,1,6,0.100,29435.000,0.200,25337.000,0.300,5126.000,0.500,1275.000,1.000,947.000,5.000,1.000
"07/02/06","04:09:09","AMMA06",61550.000,"cc",28364.418,6.00,2836.442,1,6,0.100,28519.000,0.200,25703.000,0.300,5094.000,0.500,1300.000,1.000,934.000,5.000,0
"07/02/06","04:09:15","AMMA06",61658.000,"cc",28325.102,6.00,2832.510,1,6,0.100,28976.000,0.200,25476.000,0.300,5020.000,0.500,1283.000,1.000,902.000,5.000,1.000
"07/02/06","04:09:21","AMMA06",61527.000,"cc",28358.481,6.00,2835.848,1,6,0.100,29025.000,0.200,25240.000,0.300,4981.000,0.500,1334.000,1.000,946.000,5.000,1.000
"07/02/06","04:09:27","AMMA06",61646.000,"cc",28319.707,6.00,2831.971,1,6,0.100,28783.000,0.200,25460.000,0.300,5148.000,0.500,1311.000,1.000,942.000,5.000,2.000
"07/02/06","04:09:33","AMMA06",61896.000,"cc",28323.541,6.00,2832.354,1,6,0.100,29063.000,0.200,25500.000,0.300,5120.000,0.500,1319.000,1.000,894.000,5.000,0
"07/02/06","04:09:39","AMMA06",61127.000,"cc",28314.010,6.00,2831.401,1,6,0.100,28695.000,0.200,25073.000,0.300,5177.000,0.500,1298.000,1.000,884.000,5.000,0
"07/02/06","04:09:45","AMMA06",61188.000,"cc",28304.795,6.00,2830.480,1,6,0.100,28680.000,0.200,25132.000,0.300,5205.000,0.500,1320.000,1.000,851.000,5.000,0
"07/02/06","04:09:51","AMMA06",61029.000,"cc",28317.035,6.00,2831.704,1,6,0.100,28554.000,0.200,25169.000,0.300,5144.000,0.500,1299.000,1.000,863.000,5.000,0
"07/02/06","04:09:57","AMMA06",61646.000,"cc",28297.846,6.00,2829.785,1,6,0.100,29103.000,0.200,25328.000,0.300,5036.000,0.500,1300.000,1.000,878.000,5.000,1.000
"07/02/06","04:10:03","AMMA06",61265.000,"cc",28253.834,6.00,2825.384,1,6,0.100,28910.000,0.200,25066.000,0.300,5097.000,0.500,1273.000,1.000,919.000,5.000,0
"07/02/06","04:10:09","AMMA06",61695.000,"cc",28300.551,6.00,2830.055,1,6,0.100,29218.000,0.200,25173.000,0.300,5080.000,0.500,1302.000,1.000,922.000,5.000,0
"07/02/06","04:10:15","AMMA06",61377.000,"cc",28360.438,6.00,2836.044,1,6,0.100,28663.000,0.200,25404.000,0.300,5075.000,0.500,1340.000,1.000,894.000,5.000,1.000
"07/02/06","04:10:21","AMMA06",61354.000,"cc",28298.793,6.00,2829.879,1,6,0.100,28840.000,0.200,25229.000,0.300,5019.000,0.500,1339.000,1.000,927.000,5.000,0
"07/02/06","04:10:27","AMMA06",61514.000,"cc",28330.225,6.00,2833.023,1,6,0.100,29151.000,0.200,25244.000,0.300,4927.000,0.500,1283.000,1.000,909.000,5.000,0
"07/02/06","04:10:33","AMMA06",60968.000,"cc",28383.045,6.00,2838.305,1,6,0.100,28561.000,0.200,25211.000,0.300,4966.000,0.500,1282.000,1.000,947.000,5.000,1.000
"07/02/06","04:10:39","AMMA06",61476.000,"cc",28267.398,6.00,2826.740,1,6,0.100,28866.000,0.200,25462.000,0.300,4987.000,0.500,1275.000,1.000,884.000,5.000,2.000
"07/02/06","04:10:45","AMMA06",61197.000,"cc",28307.897,6.00,2830.790,1,6,0.100,28997.000,0.200,25016.000,0.300,4897.000,0.500,1330.000,1.000,957.000,5.000,0
"07/02/06","04:10:51","AMMA06",61531.000,"cc",28326.891,6.00,2832.689,1,6,0.100,29064.000,0.200,25225.000,0.300,5044.000,0.500,1351.000,1.000,846.000,5.000,1.000
"07/02/06","04:10:57","AMMA06",61172.000,"cc",28312.359,6.00,2831.236,1,6,0.100,28762.000,0.200,25268.000,0.300,4918.000,0.500,1289.000,1.000,934.000,5.000,1.000
"07/02/06","04:11:03","AMMA06",61408.000,"cc",28318.106,6.00,2831.811,1,6,0.100,28819.000,0.200,25085.000,0.300,5242.000,0.500,1326.000,1.000,935.000,5.000,1.000
"07/02/06","04:11:09","AMMA06",61257.000,"cc",28338.803,6.00,2833.880,1,6,0.100,28858.000,0.200,25292.000,0.300,4931.000,0.500,1279.000,1.000,896.000,5.000,1.000
"07/02/06","04:11:15","AMMA06",61662.000,"cc",28302.047,6.00,2830.205,1,6,0.100,29170.000,0.200,25274.000,0.300,5063.000,0.500,1306.000,1.000,846.000,5.000,3.000
"07/02/06","04:11:21","AMMA06",61263.000,"cc",28313.354,6.00,2831.335,1,6,0.100,29035.000,0.200,24907.000,0.300,5073.000,0.500,1362.000,1.000,885.000,5.000,1.000
"07/02/06","04:11:27","AMMA06",60912.000,"cc",28334.727,6.00,2833.473,1,6,0.100,28654.000,0.200,25075.000,0.300,4965.000,0.500,1349.000,1.000,869.000,5.000,0
"07/02/06","04:11:33","AMMA06",61338.000,"cc",28281.356,6.00,2828.136,1,6,0.100,29107.000,0.200,25017.000,0.300,4988.000,0.500,1323.000,1.000,903.000,5.000,0
"07/02/06","04:11:39","AMMA06",61609.000,"cc",28265.410,6.00,2826.541,1,6,0.100,29215.000,0.200,25053.000,0.300,4992.000,0.500,1424.000,1.000,923.000,5.000,2.000
"07/02/06","04:11:45","AMMA06",61089.000,"cc",28370.492,6.00,2837.049,1,6,0.100,28931.000,0.200,25032.000,0.300,4897.000,0.500,1317.000,1.000,912.000,5.000,0
"07/02/06","04:11:51","AMMA06",61593.000,"cc",28332.840,6.00,2833.284,1,6,0.100,29048.000,0.200,25282.000,0.300,5001.000,0.500,1322.000,1.000,938.000,5.000,2.000
"07/02/06","04:11:57","AMMA06",62040.000,"cc",28307.012,6.00,2830.701,1,6,0.100,29363.000,0.200,25443.000,0.300,5006.000,0.500,1317.000,1.000,910.000,5.000,1.000
"07/02/06","04:12:03","AMMA06",61340.000,"cc",28304.197,6.00,2830.420,1,6,0.100,28976.000,0.200,25168.000,0.300,5067.000,0.500,1256.000,1.000,873.000,5.000,0
"07/02/06","04:12:09","AMMA06",61488.000,"cc",28297.588,6.00,2829.759,1,6,0.100,29341.000,0.200,24988.000,0.300,4973.000,0.500,1285.000,1.000,901.000,5.000,0
"07/02/06","04:12:15","AMMA06",61917.000,"cc",28330.162,6.00,2833.016,1,6,0.100,29370.000,0.200,25330.000,0.300,5043.000,0.500,1348.000,1.000,825.000,5.000,1.000
"07/02/06","04:12:21","AMMA06",61142.000,"cc",28319.984,6.00,2831.999,1,6,0.100,28903.000,0.200,24996.000,0.300,4985.000,0.500,1366.000,1.000,890.000,5.000,2.000
"07/02/06","04:12:27","AMMA06",61462.000,"cc",28352.357,6.00,2835.236,1,6,0.100,29214.000,0.200,25128.000,0.300,4968.000,0.500,1262.000,1.000,890.000,5.000,0
"07/02/06","04:12:33","AMMA06",61012.000,"cc",28288.432,6.00,2828.843,1,6,0.100,29123.000,0.200,24735.000,0.300,4967.000,0.500,1307.000,1.000,878.000,5.000,2.000
"07/02/06","04:12:39","AMMA06",61325.000,"cc",28295.147,6.00,2829.515,1,6,0.100,28949.000,0.200,25093.000,0.300,5084.000,0.500,1298.000,1.000,899.000,5.000,2.000
"07/02/06","04:12:45","AMMA06",61475.000,"cc",28340.043,6.00,2834.004,1,6,0.100,29118.000,0.200,25137.000,0.300,4996.000,0.500,1341.000,1.000,883.000,5.000,0
"07/02/06","04:12:51","AMMA06",61529.000,"cc",28262.953,6.00,2826.295,1,6,0.100,29347.000,0.200,25051.000,0.300,4873.000,0.500,1346.000,1.000,912.000,5.000,0
"07/02/06","04:12:57","AMMA06",61696.000,"cc",28379.268,6.00,2837.927,1,6,0.100,29107.000,0.200,25228.000,0.300,5150.000,0.500,1314.000,1.000,896.000,5.000,1.000
"07/02/06","04:13:03","AMMA06",61986.000,"cc",28334.383,6.00,2833.439,1,6,0.100,29212.000,0.200,25448.000,0.300,5093.000,0.500,1301.000,1.000,932.000,5.000,0
"07/02/06","04:13:09","AMMA06",61773.000,"cc",28305.473,6.00,2830.547,1,6,0.100,29032.000,0.200,25560.000,0.300,5045.000,0.500,1271.000,1.000,864.000,5.000,1.000
"07/02/06","04:13:15","AMMA06",61840.000,"cc",28314.232,6.00,2831.423,1,6,0.100,29241.000,0.200,25344.000,0.300,4971.000,0.500,1324.000,1.000,960.000,5.000,0
"07/02/06","04:13:21","AMMA06",62704.000,"cc",28343.785,6.00,2834.379,1,6,0.100,29655.000,0.200,25613.000,0.300,5223.000,0.500,1274.000,1.000,936.000,5.000,3.000
"07/02/06","04:13:27","AMMA06",62124.000,"cc",28333.924,6.00,2833.393,1,6,0.100,29297.000,0.200,25339.000,0.300,5201.000,0.500,1361.000,1.000,924.000,5.000,2.000
"07/02/06","04:13:33","AMMA06",62355.000,"cc",28269.512,6.00,2826.951,1,6,0.100,29580.000,0.200,25435.000,0.300,5098.000,0.500,1327.000,1.000,914.000,5.000,1.000
"07/02/06","04:13:39","AMMA06",62602.000,"cc",28338.981,6.00,2833.898,1,6,0.100,29305.000,0.200,25955.000,0.300,5098.000,0.500,1357.000,1.000,886.000,5.000,1.000
"07/02/06","04:13:45","AMMA06",62314.000,"cc",28291.440,6.00,2829.144,1,6,0.100,29313.000,0.200,25626.000,0.300,5145.000,0.500,1300.000,1.000,929.000,5.000,1.000
"07/02/06","04:13:51","AMMA06",62902.000,"cc",28321.621,6.00,2832.162,1,6,0.100,29563.000,0.200,25729.000,0.300,5389.000,0.500,1297.000,1.000,921.000,5.000,3.000
"07/02/06","04:13:57","AMMA06",62888.000,"cc",28292.203,6.00,2829.221,1,6,0.100,29264.000,0.200,26165.000,0.300,5259.000,0.500,1248.000,1.000,949.000,5.000,3.000